Location: Misciano
(43.5000°N, 11.9500°E)
Time: 17:51:30
(UTC+00:00)

Cosmos 2237 Rocket - Pass Details

Date: 13 August 2020
Orbit: 836 x 848 km, 71.0° (Epoch: 24 September)

Event Time Altitude Azimuth Distance (km) Brightness Sun altitude
Rises 23:06:47 0° 336° (NNW) 3,406 6.3 -32.2°
Reaches altitude 10° 23:09:15 10° 338° (NNW) 2,466 5.4 -32.2°
Enters shadow 23:13:41 55° 355° (N) 1,003 2.7 -32.2°
